Wind_Speed
25 21 19 16 14 14 15 11 8 7 9 13 9 13 16 21 30 37 36 37 28 29 34 34 36 37 34 31 32 35 35 33 33 35 36 36 38 39 40 41 40 40 41
26 22 21 18 15 14 15 14 9 7 7 9 9 7 9 12 20 22 28 30 23 30 32 31 28 27 27 29 29 31 33 30 32 31 36 39 41 43 44 41 42 43 43
27 24 24 21 18 15 14 16 15 12 9 9 9 8 7 6 6 8 19 14 12 17 22 20 16 22 26 30 31 33 35 36 36 39 39 42 44 45 44 45 47 47 48
29 26 26 24 21 19 15 16 15 16 15 12 11 11 11 9 9 10 9 13 15 16 17 18 20 22 25 30 34 37 40 41 41 42 42 43 47 46 47 49 50 52 50
30 28 29 26 24 23 20 20 16 15 16 13 12 13 15 15 15 15 16 18 20 21 22 22 24 26 30 34 37 41 43 45 46 46 48 49 48 48 50 51 53 53 52
30 30 29 29 29 28 26 25 23 20 20 19 18 16 14 17 19 20 20 22 24 25 26 27 29 31 34 36 39 41 42 44 46 47 48 52 52 53 54 55 51 50 52
31 33 33 31 32 33 31 28 28 26 25 24 23 22 21 18 18 20 23 24 26 27 28 30 30 32 34 36 38 40 41 43 46 47 49 52 53 53 52 52 53 54 55
30 32 31 35 36 35 34 33 32 32 30 29 29 29 28 25 24 23 24 25 26 28 30 33 35 37 39 42 44 45 47 49 50 51 53 54 54 53 54 54 53 60 61
36 30 29 28 32 32 35 37 36 37 36 35 35 33 32 32 33 32 32 32 30 29 31 32 34 36 39 41 42 44 45 48 48 50 51 53 54 55 56 56 57 66 69
33 24 24 24 22 26 27 28 32 37 39 38 38 37 38 38 38 39 40 40 39 37 37 38 38 39 40 40 42 44 47 48 50 51 52 52 54 57 56 59 67 73 68
31 28 29 29 31 33 35 37 37 38 38 40 42 42 42 41 43 45 48 49 45 44 47 46 46 44 45 47 48 47 46 48 49 55 56 62 61 61 68 74 70 75 77
35 35 35 34 36 36 33 32 34 39 42 42 41 42 42 38 40 40 47 51 56 52 53 53 55 53 52 53 53 55 59 58 63 60 63 63 69 74 76 74 77 86 89
37 39 38 39 35 35 37 36 36 34 34 36 38 42 45 48 47 45 43 49 54 62 71 63 67 55 61 54 55 62 69 69 65 64 74 74 74 81 87 83 86 86 82
36 33 33 32 32 30 31 32 33 35 36 38 40 40 41 43 44 53 49 51 47 58 53 49 56 58 60 59 68 71 68 66 69 75 73 78 82 83 79 69 57 56 55
29 32 29 27 28 28 29 29 29 31 33 36 37 39 42 41 45 45 49 58 48 46 51 50 54 61 64 67 64 67 74 67 71 70 76 75 65 55 54 56 58 63 68
24 24 26 29 30 29 27 29 29 31 31 31 34 38 39 41 44 46 51 50 49 52 58 57 66 55 61 67 69 78 71 69 68 65 60 59 58 56 57 61 63 62 62
33 33 35 36 36 35 33 30 28 30 31 33 31 35 39 43 45 48 48 48 51 56 52 44 39 41 42 45 44 53 50 51 51 51 53 56 60 60 59 59 61 62 63
37 37 38 38 35 34 33 33 33 33 36 35 35 36 37 40 42 45 49 51 49 47 46 44 40 39 39 39 42 44 46 47 50 52 55 57 57 57 58 61 63 66 68
23 24 26 27 27 28 28 28 30 32 32 33 34 36 38 39 42 43 44 45 47 49 46 45 44 42 44 45 46 49 50 52 53 54 56 57 58 60 62 64 67 70 72
30 30 32 33 35 36 37 37 38 39 40 42 44 45 46 46 46 47 47 48 49 48 50 51 50 51 52 52 51 50 50 51 53 56 59 61 63 66 68 69 71 73 75
36 37 38 40 41 43 43 45 46 48 50 51 53 53 52 52 53 52 51 51 53 53 54 55 56 56 53 53 52 53 54 55 58 60 64 66 67 68 70 72 73 74 77
43 44 44 45 47 47 49 50 52 53 54 55 55 54 52 49 48 46 48 51 52 54 53 53 54 55 56 56 57 58 58 62 64 66 68 69 69 70 72 72 74 76 77
43 45 47 48 49 50 50 50 51 52 52 52 50 48 46 46 47 50 49 50 51 52 56 57 59 61 60 61 62 62 64 67 69 69 69 69 70 70 71 73 74 75 73
44 45 45 45 44 41 41 43 46 49 49 48 47 48 47 48 49 49 50 52 54 56 57 59 59 60 61 62 63 65 66 67 68 68 69 69 70 72 72 72 70 68 60
43 42 43 43 43 41 42 42 43 46 48 46 46 45 44 44 45 47 49 51 54 55 56 57 59 61 62 64 64 65 66 68 68 69 70 71 71 70 68 64 57 50 48
47 47 46 46 46 44 44 44 44 44 46 48 48 48 50 50 50 51 52 54 55 57 58 59 61 62 63 64 65 66 67 69 70 70 69 68 65 60 53 48 46 48 50
Wind_Direction
227 233 239 252 268 283 286 283 298 278 288 283 252 252 237 232 234 236 238 237 258 259 257 258 268 267 263 248 233 229 232 234 240 246 250 251 254 261 264 265 268 268 272
226 230 237 246 254 266 281 275 272 276 276 261 278 265 250 264 256 243 239 250 257 255 258 257 255 250 242 231 230 229 232 240 245 251 251 254 259 262 266 269 271 274 277
224 228 236 243 251 254 272 279 267 264 270 273 264 250 241 237 281 267 248 257 255 256 256 249 251 255 248 238 234 238 242 248 257 257 254 257 261 263 267 270 272 276 281
222 226 237 241 249 253 254 268 276 268 255 254 269 276 270 263 236 227 241 250 249 248 247 239 242 248 249 248 246 246 253 255 261 262 259 256 259 262 267 269 272 279 280
223 228 234 237 242 251 253 259 266 269 273 266 254 260 271 274 271 263 249 238 238 243 251 252 251 251 250 250 252 253 258 260 263 266 267 267 266 266 268 272 277 279 280
229 232 236 236 239 242 247 249 258 265 269 270 271 269 264 262 263 262 261 263 265 264 265 263 260 260 259 257 257 258 260 263 266 270 273 274 274 275 276 279 280 282 282
230 232 234 239 241 242 244 246 249 255 264 271 275 278 271 269 267 265 262 261 262 263 265 267 267 268 267 267 268 268 270 270 271 272 273 275 276 277 277 277 278 279 279
232 242 239 238 240 244 247 245 247 249 253 259 268 272 275 275 272 271 273 273 272 272 274 273 272 272 273 273 273 273 274 274 273 272 273 275 276 277 277 275 278 281 280
235 241 252 246 251 257 258 251 248 250 251 253 255 259 263 268 270 272 271 272 273 274 273 271 270 271 272 272 275 275 275 274 273 273 274 274 275 277 276 277 275 281 281
247 238 243 251 245 242 246 252 254 258 259 260 261 261 264 262 264 267 268 267 267 269 268 270 271 270 272 274 274 275 275 276 278 280 279 277 279 278 286 286 283 283 280
243 256 261 260 264 268 265 263 266 262 261 260 265 269 264 264 265 267 268 269 269 265 267 270 271 272 274 276 277 279 281 286 287 287 284 282 277 280 277 281 278 280 284
251 257 261 263 260 262 260 263 269 267 265 267 267 268 269 274 270 273 264 265 263 264 268 267 269 270 270 274 278 276 276 277 280 283 282 278 280 279 278 279 279 279 280
255 258 269 275 275 270 264 262 268 272 272 271 271 273 275 276 277 277 280 271 274 273 262 258 270 260 268 271 274 278 284 271 274 284 284 271 281 277 276 281 277 280 281
263 270 279 277 276 274 272 271 266 266 271 274 275 269 267 268 271 271 269 278 273 274 273 276 265 258 261 265 269 265 273 277 272 270 283 273 281 281 279 282 279 279 277
265 268 273 279 278 278 277 274 273 269 267 268 268 268 268 269 259 267 266 266 275 273 275 272 266 269 271 264 270 271 272 274 276 279 281 283 281 277 274 276 278 280 281
265 274 286 288 288 282 276 273 271 271 269 268 268 270 272 270 267 270 271 276 270 275 280 277 276 275 270 278 277 275 279 272 274 281 282 279 277 279 283 285 288 292 296
272 277 280 285 281 282 283 282 281 280 283 282 283 275 273 271 274 276 276 276 278 279 282 283 279 278 280 282 275 276 280 281 277 276 278 279 282 286 291 295 295 292 293
272 276 278 279 275 277 279 283 287 286 284 283 285 282 281 280 280 279 278 280 281 281 282 279 280 279 276 274 274 276 275 276 279 283 285 287 291 294 294 293 293 294 296
273 274 276 276 277 279 281 282 284 286 288 286 285 284 283 281 279 280 280 281 282 281 282 279 278 275 275 274 275 276 279 283 288 291 293 293 292 293 294 295 297 298 300
271 273 275 276 279 281 282 283 285 286 285 284 283 282 282 283 282 281 282 280 277 275 275 277 275 274 278 281 284 286 288 290 292 293 295 296 297 297 297 298 298 299 301
277 278 279 279 280 281 282 282 283 282 282 283 283 282 282 282 282 281 278 274 273 274 274 276 280 284 284 285 285 287 288 291 292 295 297 295 295 295 296 297 299 301 302
280 280 281 280 281 281 282 282 282 282 281 281 280 281 282 282 282 276 273 272 274 277 278 280 282 283 284 284 286 287 289 292 294 295 295 295 295 296 298 299 301 302 303
282 282 282 281 282 283 284 284 284 284 284 283 283 282 278 277 275 276 276 275 276 276 277 279 281 284 286 287 287 289 289 291 293 294 293 294 296 297 299 300 301 302 302
285 284 283 282 281 280 283 285 285 284 283 280 278 276 274 275 276 277 278 278 279 279 280 281 282 283 285 286 287 288 289 290 291 293 294 296 297 298 299 299 300 301 302
276 279 280 280 278 279 281 282 284 283 281 280 279 279 280 280 280 280 281 281 281 280 280 281 282 283 285 287 289 290 291 292 293 295 296 296 297 298 298 299 300 300 301
275 275 276 275 275 275 277 279 281 281 279 277 277 278 279 280 281 282 282 281 282 282 283 284 285 286 287 289 290 291 292 293 294 294 295 296 297 297 298 298 299 300 301
Height
5658 5661 5664 5665 5665 5666 5666 5665 5664 5664 5663 5661 5664 5665 5666 5668 5671 5674 5677 5680 5682 5686 5690 5692 5695 5696 5697 5699 5701 5704 5708 5711 5714 5717 5718 5718 5719 5720 5719 5720 5720 5719 5719
5652 5655 5658 5660 5660 5662 5662 5662 5661 5662 5665 5663 5662 5662 5663 5664 5665 5668 5672 5674 5676 5681 5684 5686 5687 5688 5691 5694 5697 5700 5704 5705 5708 5710 5710 5712 5711 5710 5710 5710 5709 5709 5708
5645 5648 5652 5654 5655 5657 5658 5659 5659 5658 5660 5663 5664 5664 5663 5663 5664 5664 5668 5671 5673 5675 5677 5680 5682 5684 5687 5690 5693 5695 5697 5698 5699 5700 5703 5703 5702 5702 5701 5700 5699 5698 5696
5638 5641 5646 5648 5650 5652 5652 5654 5655 5656 5656 5657 5658 5661 5662 5662 5661 5663 5665 5668 5670 5672 5674 5675 5677 5679 5681 5683 5685 5687 5688 5689 5689 5689 5691 5694 5693 5694 5692 5691 5689 5687 5684
5633 5635 5639 5642 5645 5648 5648 5649 5650 5652 5654 5654 5654 5655 5657 5659 5660 5661 5662 5664 5665 5667 5669 5670 5671 5673 5675 5676 5677 5679 5680 5680 5680 5680 5679 5681 5683 5683 5682 5681 5678 5675 5672
5627 5630 5632 5635 5638 5640 5642 5644 5646 5647 5648 5650 5651 5652 5653 5654 5655 5657 5659 5660 5662 5663 5664 5665 5666 5667 5668 5668 5669 5670 5671 5671 5670 5669 5669 5668 5669 5669 5668 5666 5664 5661 5658
5618 5622 5625 5628 5631 5633 5636 5639 5641 5643 5645 5645 5647 5648 5648 5649 5650 5652 5653 5654 5656 5657 5659 5660 5661 5661 5660 5661 5661 5660 5660 5660 5659 5659 5656 5655 5653 5652 5651 5649 5647 5647 5643
5613 5614 5617 5620 5624 5627 5629 5633 5635 5637 5639 5641 5642 5642 5643 5645 5644 5644 5645 5646 5648 5649 5649 5650 5650 5650 5650 5649 5649 5648 5648 5647 5646 5646 5644 5642 5640 5639 5637 5635 5633 5630 5627
5606 5609 5609 5613 5616 5620 5622 5624 5628 5630 5632 5633 5635 5636 5638 5639 5639 5638 5637 5638 5640 5641 5640 5640 5640 5640 5639 5638 5638 5637 5636 5634 5633 5633 5631 5628 5626 5624 5622 5620 5617 5615 5611
5599 5601 5603 5605 5609 5613 5616 5618 5620 5622 5624 5625 5627 5629 5630 5631 5631 5631 5629 5627 5629 5630 5630 5629 5629 5629 5629 5628 5626 5624 5623 5621 5621 5619 5618 5615 5613 5612 5609 5605 5601 5598 5593
5594 5596 5598 5599 5601 5604 5606 5608 5610 5612 5613 5615 5617 5618 5620 5621 5622 5621 5619 5618 5617 5616 5616 5617 5617 5616 5615 5614 5612 5610 5609 5607 5605 5604 5603 5600 5597 5594 5591 5588 5583 5579 5574
5587 5589 5590 5592 5594 5597 5598 5599 5600 5601 5603 5604 5606 5606 5608 5608 5609 5610 5610 5606 5599 5602 5602 5601 5603 5603 5601 5601 5599 5595 5593 5591 5588 5585 5584 5582 5580 5577 5573 5568 5563 5559 5553
5577 5579 5581 5582 5583 5585 5587 5588 5589 5590 5591 5592 5593 5595 5596 5596 5598 5598 5597 5597 5594 5589 5583 5583 5585 5581 5587 5584 5582 5579 5575 5574 5571 5570 5568 5563 5559 5556 5552 5547 5542 5539 5533
5569 5570 5571 5572 5572 5573 5575 5576 5577 5578 5579 5578 5579 5581 5581 5581 5582 5581 5584 5582 5577 5573 5573 5569 5569 5566 5568 5567 5565 5564 5561 5559 5556 5555 5550 5546 5541 5535 5531 5526 5522 5518 5515
5560 5562 5561 5562 5562 5563 5564 5564 5565 5566 5566 5566 5566 5566 5566 5567 5566 5566 5565 5564 5563 5561 5557 5556 5557 5555 5552 5551 5549 5548 5546 5541 5538 5534 5530 5526 5522 5518 5514 5510 5506 5503 5497
5549 5550 5551 5552 5552 5553 5554 5555 5555 5556 5555 5554 5554 5555 5555 5554 5553 5551 5550 5549 5547 5544 5542 5541 5540 5539 5538 5535 5532 5530 5525 5522 5518 5516 5513 5510 5507 5504 5500 5495 5490 5484 5480
5543 5543 5543 5544 5544 5544 5544 5544 5544 5543 5543 5543 5541 5542 5542 5542 5540 5538 5537 5535 5534 5533 5529 5526 5524 5522 5521 5521 5517 5516 5510 5506 5504 5502 5499 5497 5494 5488 5483 5476 5472 5467 5461
5532 5533 5533 5534 5534 5534 5534 5533 5533 5533 5533 5532 5532 5531 5530 5529 5528 5527 5525 5523 5521 5518 5516 5513 5509 5507 5506 5503 5501 5498 5496 5495 5492 5488 5484 5480 5475 5470 5466 5461 5455 5449 5441
5525 5525 5525 5525 5524 5524 5524 5523 5523 5523 5522 5521 5520 5520 5519 5518 5516 5514 5512 5509 5507 5506 5504 5501 5499 5496 5493 5490 5487 5485 5482 5479 5475 5470 5466 5463 5459 5454 5448 5441 5434 5428 5419
5518 5517 5517 5516 5516 5514 5514 5513 5512 5511 5510 5509 5509 5507 5506 5504 5503 5500 5498 5496 5494 5492 5490 5488 5485 5483 5480 5478 5474 5469 5465 5462 5459 5455 5450 5445 5439 5434 5429 5423 5416 5409 5401
5507 5506 5506 5505 5504 5503 5501 5500 5498 5497 5496 5495 5494 5492 5491 5489 5487 5485 5483 5482 5479 5476 5474 5472 5469 5467 5464 5460 5457 5453 5451 5447 5442 5437 5432 5427 5422 5417 5411 5405 5397 5389 5382
5495 5494 5493 5492 5491 5489 5488 5486 5484 5483 5481 5479 5477 5475 5473 5471 5470 5470 5468 5466 5463 5461 5458 5455 5453 5450 5447 5444 5440 5436 5431 5427 5423 5419 5414 5409 5403 5397 5391 5384 5377 5370 5362
5482 5480 5479 5477 5475 5473 5472 5470 5468 5467 5465 5463 5461 5459 5457 5456 5455 5453 5451 5450 5448 5445 5442 5439 5436 5433 5430 5426 5423 5418 5415 5411 5406 5401 5396 5390 5384 5378 5372 5365 5358 5351 5343
5468 5466 5464 5462 5461 5459 5458 5456 5454 5452 5450 5448 5446 5444 5442 5440 5439 5437 5435 5433 5431 5428 5425 5422 5419 5416 5412 5409 5405 5401 5396 5391 5386 5382 5377 5372 5366 5359 5352 5346 5338 5332 5325
5454 5453 5452 5450 5448 5446 5445 5442 5439 5437 5435 5433 5431 5429 5427 5425 5422 5420 5418 5416 5414 5412 5409 5405 5402 5398 5394 5390 5386 5382 5378 5373 5368 5363 5358 5352 5346 5339 5333 5327 5321 5317 5312
5440 5439 5437 5436 5434 5432 5430 5428 5425 5423 5420 5418 5416 5414 5412 5410 5407 5405 5403 5401 5398 5395 5392 5388 5385 5381 5377 5373 5369 5364 5359 5353 5347 5342 5336 5331 5326 5321 5316 5311 5308 5304 5298